This is the latest recevied weather packets stored in our database for station/object K5OLV. If no packets are shown the sender has not sent any weather packets the latest 10 day(s).
| Time | Temp. | Humidity | Pressure | Rain* | Wind** | Luminosity | Snow |
|---|---|---|---|---|---|---|---|
| 1777826411 | 14.44° C | 57% | 1018.7 hPa | 0 mm | - | 714 W/m² | - |
| 1777826108 | 14.44° C | 58% | 1018.7 hPa | 0 mm | - | 707 W/m² | - |
| 1777825805 | 14.44° C | 59% | 1018.8 hPa | 0 mm | - | 675 W/m² | - |
| 1777825503 | 13.89° C | 59% | 1018.8 hPa | 0 mm | - | 731 W/m² | - |
| 1777825200 | 12.78° C | 61% | 1018.8 hPa | 0 mm | - | 734 W/m² | - |
| 1777824896 | 13.33° C | 62% | 1018.9 hPa | 0 mm | - | 750 W/m² | - |
| 1777824592 | 12.22° C | 62% | 1018.9 hPa | 0 mm | - | 746 W/m² | - |
| 1777824290 | 12.22° C | 63% | 1018.8 hPa | 0 mm | - | 750 W/m² | - |
| 1777823984 | 13.33° C | 64% | 1018.7 hPa | 0 mm | - | 747 W/m² | - |
| 1777823682 | 12.22° C | 64% | 1018.9 hPa | 0 mm | - | 744 W/m² | - |
| 1777823379 | 12.22° C | 63% | 1019 hPa | 0 mm | - | 733 W/m² | - |
| 1777823077 | 12.22° C | 63% | 1018.9 hPa | 0 mm | - | 753 W/m² | - |
| 1777822774 | 11.67° C | 64% | 1019.1 hPa | 0 mm | - | 732 W/m² | - |
| 1777822472 | 12.22° C | 61% | 1019 hPa | 0 mm | - | 688 W/m² | - |
| 1777822170 | 11.11° C | 66% | 1019.1 hPa | 0 mm | - | 691 W/m² | - |
| 1777821867 | 11.11° C | 67% | 1019.1 hPa | 0 mm | - | 722 W/m² | - |
| 1777821564 | 11.11° C | 70% | 1019.2 hPa | 0 mm | - | 786 W/m² | - |
| 1777821262 | 10.56° C | 69% | 1019.1 hPa | 0 mm | - | 791 W/m² | - |
| 1777820959 | 10.56° C | 70% | 1019 hPa | 0 mm | - | 747 W/m² | - |
| 1777820655 | 10.56° C | 76% | 1018.8 hPa | 0 mm | - | 698 W/m² | - |
| 1777820351 | 10.56° C | 73% | 1018.9 hPa | 0 mm | - | 525 W/m² | - |
| 1777820049 | 10.56° C | 74% | 1018.9 hPa | 0 mm | - | 679 W/m² | - |
| 1777819745 | 10° C | 75% | 1018.8 hPa | 0 mm | - | 668 W/m² | - |
| 1777819444 | 10° C | 74% | 1019.1 hPa | 0 mm | - | 648 W/m² | - |
| 1777819142 | 10° C | 75% | 1019 hPa | 0 mm | - | 686 W/m² | - |
* Rain latest hour (hover to see other rain measurements)
** Current wind speed in m/s (hover to see current wind gust speed)